Location: Geyikbay?r?
(36.8756°N, 30.4583°E)
Time: 05:24:48
(UTC+00:00)

Cosmos 2344 - Pass Details

Date: 05 August 2024
Orbit: 1207 x 3035 km, 63.3° (Epoch: 09 September)

Event Time Altitude Azimuth Distance (km) Brightness Sun altitude
Exits shadow 18:56:04 30° 111° (ESE) 2,130 4.2 -20.5°
Drops below altitude 10° 19:02:05 10° 54° (NE) 3,158 5.5 -21.4°
Sets 19:05:05 0° 44° (NE) 4,127 6.3 -21.8°
